KQ4NAL Weather Reports


Display with metric or nautical units.
time (UTC)temp
F
wind
direction
speed
MPH
gust
MPH
rain 1hr
in
rain 24hr
in
rain mn
in
humidity
%
barometer
mb
20260509014741 62 0 0.0 0.0 0.00 0.00 0.00 58 1010.9
20260509014238 63 0 0.0 0.0 0.00 0.00 0.00 57 1011.1
20260509013735 63 5 0.0 0.0 0.00 0.00 0.00 58 1010.9
20260509013230 63 348 0.0 1.0 0.00 0.00 0.00 57 1010.7
20260509012727 64 9 0.0 0.0 0.00 0.00 0.00 57 1011.0
20260509012224 64 356 1.0 1.0 0.00 0.00 0.00 54 1011.0
20260509011721 64 2 0.0 0.0 0.00 0.00 0.00 53 1011.2
20260509011219 64 343 0.0 0.0 0.00 0.00 0.00 53 1010.8
20260509010717 64 281 1.0 2.0 0.00 0.00 0.00 52 1011.0
20260509010213 65 257 1.0 1.0 0.00 0.00 0.00 51 1010.9
20260509005711 64 321 1.0 2.0 0.00 0.00 0.00 51 1010.9
20260509005208 65 335 1.0 2.0 0.00 0.00 0.00 52 1010.7
20260509004708 65 69 1.0 1.0 0.00 0.00 0.00 52 1010.9
20260509004206 65 343 1.0 2.0 0.00 0.00 0.00 50 1010.7
20260509003704 65 187 3.0 3.0 0.00 0.00 0.00 51 1010.7
20260509003201 65 6 1.0 1.0 0.00 0.00 0.00 51 1010.6
20260509002658 66 9 0.0 1.0 0.00 0.00 0.00 49 1010.7
20260509002155 66 299 2.0 2.0 0.00 0.00 0.00 48 1010.8
20260509001653 66 354 0.0 1.0 0.00 0.00 0.00 49 1010.8
20260509001148 66 175 3.0 3.0 0.00 0.00 0.00 48 1010.7
20260509000647 67 321 1.0 2.0 0.00 0.00 0.00 49 1010.9
20260509000144 66 214 2.0 3.0 0.00 0.00 0.00 49 1010.8
20260508235641 67 16 0.0 1.0 0.00 0.00 0.00 48 1010.9
20260508235137 67 357 1.0 2.0 0.00 0.00 0.00 46 1010.7
20260508234635 67 229 3.0 5.0 0.00 0.00 0.00 48 1010.8
20260508234131 67 275 1.0 2.0 0.00 0.00 0.00 48 1010.9
20260508233630 67 349 1.0 1.0 0.00 0.00 0.00 47 1010.7
20260508233128 67 358 3.0 5.0 0.00 0.00 0.00 46 1010.8
20260508232624 67 219 4.0 5.0 0.00 0.00 0.00 46 1010.9
20260508232121 67 0 2.0 3.0 0.00 0.00 0.00 47 1010.7
20260508231619 68 207 5.0 8.0 0.00 0.00 0.00 45 1010.8
20260508231116 68 193 5.0 7.0 0.00 0.00 0.00 46 1010.8
20260508230612 68 246 6.0 7.0 0.00 0.00 0.00 45 1010.6
20260508230109 68 183 3.0 5.0 0.00 0.00 0.00 46 1010.8
20260508225607 68 242 2.0 3.0 0.00 0.00 0.00 47 1010.7
20260508225103 68 235 4.0 7.0 0.00 0.00 0.00 44 1010.9
20260508224601 68 338 0.0 0.0 0.00 0.00 0.00 47 1010.7
20260508224058 68 218 5.0 5.0 0.00 0.00 0.00 45 1010.4
20260508223556 69 12 1.0 2.0 0.00 0.00 0.00 46 1010.4
20260508223053 68 285 2.0 2.0 0.00 0.00 0.00 44 1010.6
20260508222550 69 221 3.0 5.0 0.00 0.00 0.00 44 1010.7
20260508222047 69 197 5.0 6.0 0.00 0.00 0.00 44 1010.7
20260508221543 70 220 2.0 3.0 0.00 0.00 0.00 45 1010.5
20260508221039 69 202 6.0 7.0 0.00 0.00 0.00 45 1010.4
20260508220536 69 225 7.0 8.0 0.00 0.00 0.00 43 1010.5
20260508220032 69 11 5.0 7.0 0.00 0.00 0.00 43 1010.7
20260508215529 69 198 8.0 10.0 0.00 0.00 0.00 43 1010.6
20260508215026 69 296 2.0 2.0 0.00 0.00 0.00 46 1010.6
20260508214523 70 223 5.0 7.0 0.00 0.00 0.00 45 1010.7
20260508214019 71 295 2.0 3.0 0.00 0.00 0.00 42 1010.8
20260508213517 74 210 3.0 6.0 0.00 0.00 0.00 40 1010.5
20260508213012 73 339 2.0 2.0 0.00 0.00 0.00 41 1010.6
20260508212509 71 181 3.0 3.0 0.00 0.00 0.00 41 1010.7
20260508212006 71 236 4.0 9.0 0.00 0.00 0.00 41 1011.0
20260508211501 71 215 7.0 8.0 0.00 0.00 0.00 40 1011.0
20260508210958 71 290 5.0 8.0 0.00 0.00 0.00 42 1011.0
20260508210454 72 305 1.0 1.0 0.00 0.00 0.00 40 1010.9
20260508205951 71 180 8.0 9.0 0.00 0.00 0.00 41 1011.0
20260508205448 70 204 5.0 7.0 0.00 0.00 0.00 41 1011.0
20260508204944 70 175 5.0 6.0 0.00 0.00 0.00 45 1011.3
20260508204442 70 355 1.0 2.0 0.00 0.00 0.00 45 1011.4
20260508203937 71 234 3.0 5.0 0.00 0.00 0.00 42 1011.4
20260508203433 72 221 1.0 3.0 0.00 0.00 0.00 47 1011.3
20260508202929 70 323 3.0 3.0 0.00 0.00 0.00 42 1011.5
20260508202427 71 224 2.0 5.0 0.00 0.00 0.00 45 1011.5
20260508201924 71 301 5.0 6.0 0.00 0.00 0.00 41 1011.7
20260508201420 70 336 1.0 1.0 0.00 0.00 0.00 42 1011.7
20260508200917 70 221 3.0 5.0 0.00 0.00 0.00 45 1011.7
20260508200414 70 198 2.0 3.0 0.00 0.00 0.00 45 1011.7
20260508195909 70 325 2.0 3.0 0.00 0.00 0.00 43 1011.8
20260508195407 70 241 6.0 9.0 0.00 0.00 0.00 40 1011.9
20260508194902 70 217 3.0 8.0 0.00 0.00 0.00 43 1011.9
20260508194400 70 161 7.0 9.0 0.00 0.00 0.00 41 1011.9
20260508193857 70 8 1.0 1.0 0.00 0.00 0.00 40 1012.0
20260508193353 71 175 8.0 9.0 0.00 0.00 0.00 41 1012.2
20260508192850 72 213 4.0 5.0 0.00 0.00 0.00 41 1012.0
20260508192347 71 254 1.0 2.0 0.00 0.00 0.00 40 1012.0
20260508191844 71 239 5.0 7.0 0.00 0.00 0.00 40 1012.3
20260508191341 71 187 9.0 10.0 0.00 0.00 0.00 41 1012.3
20260508190838 71 324 2.0 3.0 0.00 0.00 0.00 41 1012.5
20260508190335 72 187 6.0 9.0 0.00 0.00 0.00 40 1012.1
20260508185831 71 179 5.0 7.0 0.00 0.00 0.00 43 1012.4
20260508185329 71 194 4.0 5.0 0.00 0.00 0.00 39 1012.6
20260508184826 71 216 6.0 9.0 0.00 0.00 0.00 41 1012.7
20260508184323 70 230 5.0 8.0 0.00 0.00 0.00 45 1013.0
20260508183820 70 168 7.0 8.0 0.00 0.00 0.00 41 1012.8
20260508183316 71 161 3.0 5.0 0.00 0.00 0.00 44 1013.1
20260508182812 71 129 5.0 6.0 0.00 0.00 0.00 40 1013.0
20260508182309 69 312 3.0 5.0 0.00 0.00 0.00 41 1013.3
20260508181805 70 201 13.0 16.0 0.00 0.00 0.00 39 1013.3
20260508181302 71 218 7.0 8.0 0.00 0.00 0.00 44 1013.3
20260508180759 70 224 2.0 2.0 0.00 0.00 0.00 44 1013.4
20260508180256 70 342 4.0 5.0 0.00 0.00 0.00 42 1013.4
20260508175752 69 175 4.0 6.0 0.00 0.00 0.00 45 1013.5
20260508175248 69 301 0.0 0.0 0.00 0.00 0.00 45 1013.6
20260508174747 70 338 2.0 3.0 0.00 0.00 0.00 45 1013.6
20260508174244 70 213 5.0 6.0 0.00 0.00 0.00 45 1013.6
20260508173740 69 74 3.0 5.0 0.00 0.00 0.00 42 1014.0
20260508173236 69 204 8.0 10.0 0.00 0.00 0.00 45 1014.1
20260508172733 67 349 3.0 3.0 0.00 0.00 0.00 44 1014.3
20260508172230 67 26 3.0 5.0 0.00 0.00 0.00 47 1014.0
20260508171727 67 194 7.0 10.0 0.00 0.00 0.00 46 1014.5
20260508171222 69 227 6.0 9.0 0.00 0.00 0.00 46 1014.4
20260508170720 69 359 3.0 3.0 0.00 0.00 0.00 46 1014.3
20260508170217 68 181 4.0 6.0 0.00 0.00 0.00 47 1014.6
20260508165714 67 194 8.0 9.0 0.00 0.00 0.00 47 1014.7
20260508165211 68 153 11.0 14.0 0.00 0.00 0.00 47 1014.8
20260508164708 68 262 2.0 2.0 0.00 0.00 0.00 50 1014.9
20260508164204 68 332 3.0 5.0 0.00 0.00 0.00 47 1015.1
20260508163702 68 56 2.0 2.0 0.00 0.00 0.00 53 1014.7
20260508163159 67 315 3.0 3.0 0.00 0.00 0.00 54 1015.2
20260508162655 67 204 7.0 8.0 0.00 0.00 0.00 51 1015.2
20260508162152 67 268 4.0 7.0 0.00 0.00 0.00 47 1015.4
20260508161649 66 190 8.0 10.0 0.00 0.00 0.00 48 1015.3
20260508161146 67 162 4.0 6.0 0.00 0.00 0.00 50 1015.5
20260508160645 66 215 5.0 6.0 0.00 0.00 0.00 49 1015.4
20260508160142 67 218 2.0 5.0 0.00 0.00 0.00 50 1015.3
20260508155639 67 0 3.0 5.0 0.00 0.00 0.00 48 1015.5
20260508155136 66 355 6.0 8.0 0.00 0.00 0.00 50 1015.6
20260508154633 66 289 4.0 6.0 0.00 0.00 0.00 50 1015.6
20260508154129 67 219 4.0 6.0 0.00 0.00 0.00 52 1015.7
20260508153626 66 352 1.0 2.0 0.00 0.00 0.00 52 1015.9
20260508153123 65 346 5.0 8.0 0.00 0.00 0.00 50 1016.1
20260508152620 65 8 1.0 1.0 0.00 0.00 0.00 50 1016.0
20260508152115 66 303 3.0 5.0 0.00 0.00 0.00 49 1016.0
20260508151613 65 267 4.0 6.0 0.00 0.00 0.00 50 1016.2
20260508151109 65 345 3.0 3.0 0.00 0.00 0.00 51 1016.1
20260508150607 65 282 5.0 7.0 0.00 0.00 0.00 52 1016.3
20260508145559 64 104 4.0 6.0 0.00 0.00 0.00 50 1016.4
20260508145055 64 57 3.0 3.0 0.00 0.00 0.00 51 1016.2
20260508144553 64 232 4.0 5.0 0.00 0.00 0.00 51 1016.5
20260508144050 64 219 3.0 3.0 0.00 0.00 0.00 51 1016.4
20260508143548 62 219 4.0 6.0 0.00 0.00 0.00 51 1016.2
20260508143044 63 197 5.0 6.0 0.00 0.00 0.00 52 1016.6
20260508142541 62 337 1.0 2.0 0.00 0.00 0.00 52 1016.1
20260508142038 62 239 5.0 7.0 0.00 0.00 0.00 50 1016.5
20260508141534 62 303 2.0 2.0 0.00 0.00 0.00 56 1016.4
20260508141032 61 272 7.0 8.0 0.00 0.00 0.00 50 1016.5
20260508140529 62 203 2.0 5.0 0.00 0.00 0.00 53 1016.6
20260508140025 61 5 3.0 3.0 0.00 0.00 0.00 54 1016.6
20260508135521 60 293 2.0 2.0 0.00 0.00 0.00 56 1016.8
20260508135018 59 0 3.0 6.0 0.00 0.00 0.00 58 1016.5
20260508134514 59 51 2.0 2.0 0.00 0.00 0.00 58 1016.7
20260508134012 58 126 3.0 3.0 0.00 0.00 0.00 60 1016.6
20260508133508 58 0 1.0 1.0 0.00 0.00 0.00 59 1016.6
20260508133005 57 241 4.0 5.0 0.00 0.00 0.00 60 1016.9
20260508132503 56 204 3.0 3.0 0.00 0.00 0.00 65 1016.6
20260508131959 55 169 3.0 3.0 0.00 0.00 0.00 63 1016.7
20260508131455 54 250 3.0 3.0 0.00 0.00 0.00 66 1016.8
20260508130952 54 354 1.0 1.0 0.00 0.00 0.00 67 1016.7
20260508130449 53 100 2.0 2.0 0.00 0.00 0.00 69 1016.8
20260508125944 52 59 1.0 1.0 0.00 0.00 0.00 71 1016.4
20260508125441 51 134 4.0 5.0 0.00 0.00 0.00 70 1016.5
20260508124939 51 235 3.0 3.0 0.00 0.00 0.00 71 1016.6
20260508124436 50 159 3.0 3.0 0.00 0.00 0.00 71 1016.6
20260508123934 49 179 3.0 3.0 0.00 0.00 0.00 73 1016.7
20260508123432 49 106 3.0 3.0 0.00 0.00 0.00 73 1016.6
20260508122928 48 208 2.0 3.0 0.00 0.00 0.00 75 1016.5
20260508122426 48 196 3.0 3.0 0.00 0.00 0.00 75 1016.4
20260508121923 47 147 3.0 3.0 0.00 0.00 0.00 76 1016.7
20260508121421 47 57 3.0 3.0 0.00 0.00 0.00 78 1016.5
20260508120918 46 178 3.0 3.0 0.00 0.00 0.00 79 1016.6
20260508120416 45 192 3.0 3.0 0.00 0.00 0.00 81 1016.6
20260508115913 44 287 3.0 3.0 0.00 0.00 0.00 84 1016.4
20260508115411 43 339 2.0 2.0 0.00 0.00 0.00 88 1016.5
20260508114907 43 188 2.0 2.0 0.00 0.00 0.00 90 1016.5
20260508114404 42 344 1.0 1.0 0.00 0.00 0.00 93 1016.4
20260508113901 41 22 1.0 1.0 0.00 0.00 0.00 95 1016.4
20260508113359 40 320 1.0 1.0 0.00 0.00 0.00 97 1016.4
20260508112855 39 35 2.0 2.0 0.00 0.00 0.00 98 1016.2
20260508112352 39 181 2.0 2.0 0.00 0.00 0.00 99 1016.4
20260508111849 38 78 0.0 0.0 0.00 0.00 0.00 99 1016.3
20260508111346 38 41 0.0 0.0 0.00 0.00 0.00 99 1016.2
20260508110843 38 10 0.0 0.0 0.00 0.00 0.00 99 1016.0
20260508110341 38 37 0.0 0.0 0.00 0.00 0.00 99 1016.3
20260508105840 38 341 0.0 0.0 0.00 0.00 0.00 99 1016.1
20260508105337 38 7 0.0 0.0 0.00 0.00 0.00 99 1016.1
20260508104834 38 84 0.0 0.0 0.00 0.00 0.00 99 1015.9
20260508104331 37 349 0.0 0.0 0.00 0.00 0.00 99 1016.0
20260508103828 37 352 0.0 0.0 0.00 0.00 0.00 99 1016.1
20260508103325 37 1 0.0 0.0 0.00 0.00 0.00 99 1015.9
20260508102823 37 1 0.0 0.0 0.00 0.00 0.00 99 1016.1
20260508102321 37 2 0.0 0.0 0.00 0.00 0.00 99 1016.2
20260508101818 37 354 0.0 0.0 0.00 0.00 0.00 99 1016.0
20260508101315 37 358 0.0 0.0 0.00 0.00 0.00 99 1016.0
20260508100813 37 354 0.0 0.0 0.00 0.00 0.00 99 1015.9
20260508100311 36 0 0.0 0.0 0.00 0.00 0.00 99 1016.0
20260508095806 36 1 0.0 0.0 0.00 0.00 0.00 99 1016.1
20260508095306 36 1 0.0 0.0 0.00 0.00 0.00 99 1016.2
20260508094801 36 358 0.0 0.0 0.00 0.00 0.00 99 1015.9
20260508094258 36 359 0.0 0.0 0.00 0.00 0.00 99 1016.1
20260508093755 36 0 0.0 0.0 0.00 0.00 0.00 99 1016.1
20260508093253 36 0 0.0 0.0 0.00 0.00 0.00 99 1016.0
20260508092749 36 358 0.0 0.0 0.00 0.00 0.00 99 1016.0
20260508092248 36 0 0.0 0.0 0.00 0.00 0.00 99 1016.0
20260508091746 36 0 0.0 0.0 0.00 0.00 0.00 99 1015.9
20260508091242 36 1 0.0 0.0 0.00 0.00 0.00 99 1015.7
20260508090740 36 359 0.0 0.0 0.00 0.00 0.00 99 1015.7
20260508090237 36 0 0.0 0.0 0.00 0.00 0.00 99 1015.8
20260508085733 36 358 0.0 0.0 0.00 0.00 0.00 98 1015.7
20260508085230 37 358 0.0 0.0 0.00 0.00 0.00 98 1015.9
20260508084726 37 359 0.0 0.0 0.00 0.00 0.00 98 1015.8
20260508084224 37 358 0.0 0.0 0.00 0.00 0.00 98 1015.8
20260508083721 37 359 0.0 0.0 0.00 0.00 0.00 98 1015.9
20260508083219 37 2 0.0 0.0 0.00 0.00 0.00 98 1015.8
20260508082713 37 2 0.0 0.0 0.00 0.00 0.00 98 1015.7
20260508082211 37 0 0.0 0.0 0.00 0.00 0.00 98 1015.8
20260508081709 37 355 0.0 0.0 0.00 0.00 0.00 98 1015.6
20260508081205 37 359 0.0 0.0 0.00 0.00 0.00 98 1015.7
20260508080702 37 359 0.0 0.0 0.00 0.00 0.00 99 1015.6
20260508080200 37 1 0.0 0.0 0.00 0.00 0.00 98 1015.8
20260508075656 37 358 0.0 0.0 0.00 0.00 0.00 98 1015.7
20260508075154 37 357 0.0 0.0 0.00 0.00 0.00 98 1015.6
20260508074651 38 358 0.0 0.0 0.00 0.00 0.00 98 1015.7
20260508074148 37 4 0.0 0.0 0.00 0.00 0.00 98 1015.7
20260508073645 37 358 0.0 0.0 0.00 0.00 0.00 98 1015.6
20260508073143 37 357 0.0 0.0 0.00 0.00 0.00 98 1015.6
20260508072638 37 358 0.0 0.0 0.00 0.00 0.00 98 1015.6
20260508072136 37 336 0.0 0.0 0.00 0.00 0.00 98 1015.7
20260508071633 38 4 0.0 0.0 0.00 0.00 0.00 98 1015.5
20260508071131 38 358 0.0 0.0 0.00 0.00 0.00 98 1015.6
20260508070629 38 13 0.0 0.0 0.00 0.00 0.00 97 1015.6
20260508070127 38 345 0.0 0.0 0.00 0.00 0.00 97 1015.9
20260508065624 39 353 0.0 1.0 0.00 0.00 0.00 98 1016.1
20260508065122 39 357 0.0 0.0 0.00 0.00 0.00 97 1016.1
20260508064619 38 358 0.0 0.0 0.00 0.00 0.00 98 1016.2
20260508064117 38 357 0.0 0.0 0.00 0.00 0.00 97 1016.2
20260508063614 38 358 0.0 0.0 0.00 0.00 0.00 97 1016.0
20260508063112 38 359 0.0 0.0 0.00 0.00 0.00 97 1016.1
20260508062609 38 358 0.0 0.0 0.00 0.00 0.00 97 1016.1
20260508062106 38 357 0.0 0.0 0.00 0.00 0.00 97 1016.3
20260508061604 38 0 0.0 0.0 0.00 0.00 0.00 97 1016.1
20260508061101 38 1 0.0 0.0 0.00 0.00 0.00 96 1016.4
20260508060557 39 1 0.0 0.0 0.00 0.00 0.00 96 1016.5
20260508060055 39 0 0.0 0.0 0.00 0.00 0.00 97 1016.5
20260508055550 39 359 0.0 0.0 0.00 0.00 0.00 96 1016.5
20260508055047 39 359 0.0 0.0 0.00 0.00 0.00 97 1016.4
20260508054543 40 7 0.0 0.0 0.00 0.00 0.00 97 1016.4
20260508054041 39 357 0.0 0.0 0.00 0.00 0.00 97 1016.4
20260508053537 39 3 0.0 0.0 0.00 0.00 0.00 97 1016.4
20260508053036 39 359 0.0 0.0 0.00 0.00 0.00 96 1016.4
20260508052533 38 0 0.0 0.0 0.00 0.00 0.00 96 1016.4
20260508052030 38 0 0.0 0.0 0.00 0.00 0.00 96 1016.1
20260508051526 39 0 0.0 0.0 0.00 0.00 0.00 96 1016.2
20260508051021 39 0 0.0 0.0 0.00 0.00 0.00 96 1016.2
20260508050518 39 0 0.0 0.0 0.00 0.00 0.00 96 1016.1
20260508050015 39 358 0.0 0.0 0.00 0.00 0.00 96 1016.2
20260508045512 39 358 0.0 0.0 0.00 0.00 0.00 96 1016.3
20260508045009 39 359 0.0 0.0 0.00 0.00 0.00 96 1016.3
20260508044506 39 355 0.0 0.0 0.00 0.00 0.00 96 1016.3
20260508044002 38 0 0.0 0.0 0.00 0.00 0.00 95 1016.5
20260508043459 38 0 0.0 0.0 0.00 0.00 0.00 95 1016.4
20260508042955 39 0 0.0 0.0 0.00 0.00 0.00 95 1016.3
20260508042453 39 0 0.0 0.0 0.00 0.00 0.00 95 1016.2
20260508041950 40 0 0.0 0.0 0.00 0.00 0.00 95 1016.2
20260508041446 39 353 0.0 0.0 0.00 0.00 0.00 95 1016.3
20260508040943 39 0 0.0 0.0 0.00 0.00 0.00 94 1016.2
20260508040440 40 0 0.0 0.0 0.00 0.00 0.00 94 1016.1
20260508035938 40 0 0.0 0.0 0.00 0.00 0.00 94 1016.2
20260508035435 40 3 0.0 0.0 0.00 0.00 0.00 94 1016.2
20260508034931 40 1 0.0 0.0 0.00 0.00 0.00 93 1016.2
20260508034429 40 1 0.0 0.0 0.00 0.00 0.00 93 1016.2
20260508033925 40 1 0.0 0.0 0.00 0.00 0.00 92 1016.3
20260508033424 40 1 0.0 0.0 0.00 0.00 0.00 92 1016.2
20260508032921 40 1 0.0 0.0 0.00 0.00 0.00 92 1016.1
20260508032418 41 2 0.0 0.0 0.00 0.00 0.00 92 1016.1
20260508031915 40 0 0.0 0.0 0.00 0.00 0.00 92 1016.4
20260508031412 40 0 0.0 0.0 0.00 0.00 0.00 91 1016.4
20260508030908 41 0 0.0 0.0 0.00 0.00 0.00 91 1016.4
20260508030405 40 0 0.0 0.0 0.00 0.00 0.00 91 1016.2
20260508025902 40 0 0.0 0.0 0.00 0.00 0.00 90 1016.1
20260508025358 41 0 0.0 0.0 0.00 0.00 0.00 90 1016.1
20260508024855 41 0 0.0 0.0 0.00 0.00 0.00 89 1016.3
20260508024352 41 0 0.0 0.0 0.00 0.00 0.00 89 1016.5
20260508023849 42 0 0.0 0.0 0.00 0.00 0.00 89 1016.1
20260508023346 42 0 0.0 0.0 0.00 0.00 0.00 89 1015.9
20260508022843 42 0 0.0 0.0 0.00 0.00 0.00 88 1016.1
20260508022338 42 0 0.0 0.0 0.00 0.00 0.00 87 1016.1
20260508021836 42 0 0.0 0.0 0.00 0.00 0.00 87 1016.1
20260508021332 41 0 0.0 0.0 0.00 0.00 0.00 86 1016.1
20260508020827 42 0 0.0 0.0 0.00 0.00 0.00 86 1016.1
20260508020325 42 0 0.0 0.0 0.00 0.00 0.00 86 1016.2
20260508015822 43 0 0.0 0.0 0.00 0.00 0.00 85 1016.1
20260508015320 44 0 0.0 0.0 0.00 0.00 0.00 85 1016.0